Regional Weather Roundup
Issued by NWS

Home | Current Version | Previous Version | Text Only | Print | Product List | Glossary On
Versions: 1 2 3 4 5 6 7 8 9 10 11 12 13 14 15 16 17 18 19 20 21 22 23 24 25 26 27 28 29 30 31 32 33 34 35 36 37 38 39 40 41 42 43 44 45 46 47 48 49 50
000
ASUS44 KOUN 061410
RWROK

WEATHER ROUNDUP FOR OKLAHOMA
NATIONAL WEATHER SERVICE NORMAN OK
800 AM CST SAT FEB 06 2016

NOTE: "FAIR" INDICATES FEW OR NO CLOUDS BELOW 12,000 FEET WITH NO
      SIGNIFICANT WEATHER AND/OR OBSTRUCTIONS TO VISIBILITY.

OKZ001>007-009>012-014-015-017-061500-
NORTHWEST OKLAHOMA AND THE PANHANDLE

CITY           SKY/WX    TMP DP  RH WIND       PRES   REMARKS
GAGE           CLEAR     21  16  81 W9        30.35S WCI  11
GUYMON         CLOUDY    22  13  68 W6        30.34R WCI  14
ENID/WOODRING  PTCLDY   N/A N/A N/A NW7       30.34R
$$

OKZ016-021>023-033>039-044-045-061500-
SOUTHWEST OKLAHOMA

CITY           SKY/WX    TMP DP  RH WIND       PRES   REMARKS
LAWTON/REGL    CLEAR     34  26  72 N12       30.36R WCI  25
LAWTON/FT SILL CLEAR     33  26  76 N12       30.34R WCI  24
FREDERICK      CLEAR     32  25  75 N14       30.34R WCI  22
CLINTON        CLEAR     27  20  75 NW9       30.36S WCI  18
HOBART         PTCLDY    29  23  78 N9        30.36S WCI  20
ALTUS AFB      PTCLDY    30  21  69 NW12      30.36S WCI  20
$$

OKZ018>020-024>031-061500-
CENTRAL OKLAHOMA

CITY           SKY/WX    TMP DP  RH WIND       PRES   REMARKS
OKLAHOMA CITY  MOCLDY    37  30  75 N12       30.34R WCI  29
OKC/WILEY POST CLEAR     32  27  81 NW7       30.35R WCI  26
OKC/TINKER AFB MOCLDY    38  32  79 N10       30.32R WCI  30
STILLWATER     CLEAR     32  29  88 NW6       30.34R WCI  26
GUTHRIE        CLEAR     33  28  81 NW5       30.35R WCI  29
$$

OKZ008-013-054>072-061500-
NORTHEAST OKLAHOMA

CITY           SKY/WX    TMP DP  RH WIND       PRES   REMARKS
TULSA          MOCLDY    40  28  62 SW3       30.32R
TULSA/JONES    CLOUDY    38  28  67 SW3       30.34R
PONCA CITY     PTCLDY    29  26  89 N5        30.35R WCI  24
BARTLESVILLE   CLEAR     32  29  88 CALM      30.35R
MUSKOGEE       MOCLDY    35  26  69 CALM      30.35R
$$

OKZ032-040>043-046>053-073>077-061500-
SOUTH CENTRAL/SOUTHEAST OKLAHOMA

CITY           SKY/WX    TMP DP  RH WIND       PRES   REMARKS
ARDMORE/DWNTWN CLOUDY    39  36  87 E6        30.35R WCI  35
MCALESTER      PTCLDY    35  33  92 CALM      30.33R
$$




USA.gov is the U.S. government's official web portal to all federal, state and local government web resources and services.